METEOR 2-18

Satellite information

Favourite Embed

Satellite Type and Status

PAYLOADIN ORBIT

Key statistics

Satellite METEOR 2-18 at a glance.

Uptime

13386

Days in orbit

Revolutions

≈ 13.9

Per day

Orbit

LEO

Low Earth Orbit

Inclination

82.5

Latest

Satellite identification and parameters

Extended collection of information and parameters for METEOR 2-18.

Object identification

Identified? True

Debris? False

Object name: METEOR 2-18

International designator: 1989-018A

Object number (NORAD): 19851

Object ID (CCSDS): 19851

Country: COMMONWEALTH OF INDEPENDENT STATES (CIS)

Current information (Y/N): Y

RCS size: LARGE

Orbital parameters

Period: 103.896 minutes

Inclination: 82.5245 deg

SMA: 7320.829 km

Apoapsis: 952.676 km

Periapsis: 932.712 km

RAAN: 358.8833 deg

Eccentricy: 0.00136354

Argument of periapsis: 81.1366 deg

Mean anomaly: 27.974 deg

Mean motion: 13.85997187 rev/day

Mean motion (dot): 0.00000118 rev/day2

B* drag term: 0.000089221065 1/REarth

Two-line elements (TLE)

Creation date: Oct. 23, 2025, 2:46 a.m.

Reference frame: TEME

Reference center: EARTH

Epoch: Oct. 22, 2025, 1:39 p.m. UTC

TLE line 0: 0 METEOR 2-18

TLE line 1: 1 19851U 89018A 25295.56889905 .00000118 00000-0 89221-4 0 9999

TLE line 2: 2 19851 82.5245 358.8833 0013635 81.1366 27.9740 13.85997187852904

Live tracking on map

Real-time ground track for satellite METEOR 2-18.

In-orbit conjunctions

A list of the most updated potential collisions computed for object METEOR 2-18.

Target Orbit TCA Probability of collision Miss distance Type
COSMOS 1249 COOLANT LEO 2025-07-25 22:23:00 0.000155476 448.0 (m) DEBRIS
COSMOS 2251 DEB LEO 2025-06-10 00:56:57 0.0009364448 78.0 (m) DEBRIS
THOR ABLESTAR DEB LEO 2025-03-01 13:37:58 0.0002168912 473.0 (m) DEBRIS
NOAA 16 DEB SSO 2025-02-22 18:15:58 0.0014952 18.0 (m) DEBRIS
FENGYUN 1C DEB SSO 2025-02-01 09:18:52 0.0001171 632.0 (m) DEBRIS

Associated space launch

Second generation soviet meteorological satellite

METEOR 2-18 was lifted into orbit during the mission ‘Tsiklon-3 | Meteor-2 18’, on board a Tsiklon-3 space rocket.

The launch took place on Feb. 28, 1989, 4:05 a.m. from 32/2.

For more information about the launch, click the button.

Launch to space Tsiklon-3 | Meteor-2 18
Tsiklon-3 | Meteor-2 18

Agency: N/A

Status: Launch Successful

Launch date: Feb. 28, 1989, 4:05 a.m. UTC

Rocket: Tsiklon-3

Launch pad: 32/2

Location: Plesetsk Cosmodrome, Russian Federation

...

Latest news about this satellite

There are no fresh news available about this satellite. Check back as we update our databases every day.


Newsletter sign-up

Weekly statistics, charts and insights to help you stay on top of the space industry.